timestamp,surface_pressure_avg,surface_temp_avg,battery_voltage,lat,long
2018-06-05 00:00:00+00:00,281.438,1.81,13.37,47.84626,-54.09684
2018-06-05 00:10:00+00:00,282.648,1.8,13.29,47.84626,-54.09684
2018-06-05 00:20:00+00:00,283.198,1.77,13.29,47.84626,-54.09684
2018-06-05 00:30:00+00:00,287.4814,1.75,13.21,47.84626,-54.09684
2018-06-05 00:40:00+00:00,294.2497,1.7,13.21,47.84626,-54.09684
2018-06-05 00:50:00+00:00,297.7581,1.7,13.21,47.84626,-54.09684
2018-06-05 01:00:00+00:00,301.9847,1.7,13.13,47.84626,-54.09684
2018-06-05 01:10:00+00:00,309.3947,1.7,13.05,47.84626,-54.09684
2018-06-05 01:20:00+00:00,316.0247,1.7,13.05,47.84626,-54.09684
2018-06-05 01:30:00+00:00,317.853,1.7,13.05,47.84626,-54.09684
2018-06-05 01:40:00+00:00,321.658,1.67,13.13,47.84626,-54.09684
2018-06-05 01:50:00+00:00,330.3146,1.65,13.13,47.84626,-54.09684
2018-06-05 02:00:00+00:00,337.5297,1.67,13.05,47.84626,-54.09684
2018-06-05 02:10:00+00:00,341.3264,1.67,12.97,47.84626,-54.09684
2018-06-05 02:20:00+00:00,348.6496,1.67,13.05,47.84626,-54.09684
2018-06-05 02:30:00+00:00,352.1511,1.68,13.05,47.84626,-54.09684
2018-06-05 02:40:00+00:00,350.6213,1.6,13.05,47.84626,-54.09684
2018-06-05 02:50:00+00:00,351.2929,1.6,13.05,47.84626,-54.09684
2018-06-05 03:00:00+00:00,356.5446,1.6,12.97,47.84626,-54.09684
2018-06-05 03:10:00+00:00,359.8895,1.6,12.89,47.84626,-54.09684
2018-06-05 03:20:00+00:00,357.1296,1.6,12.97,47.84626,-54.09684
2018-06-05 03:30:00+00:00,357.1346,1.59,12.97,47.84626,-54.09684
2018-06-05 03:40:00+00:00,360.0481,1.56,13.05,47.84626,-54.09684
2018-06-05 03:50:00+00:00,357.4646,1.5,13.05,47.84626,-54.09684
2018-06-05 04:00:00+00:00,354.8878,1.49,12.97,47.84626,-54.09684
2018-06-05 04:10:00+00:00,356.2162,1.44,12.89,47.84626,-54.09684
2018-06-05 04:20:00+00:00,358.8362,1.46,12.97,47.84626,-54.09684
2018-06-05 04:30:00+00:00,357.9911,1.49,12.97,47.84626,-54.09684
2018-06-05 04:40:00+00:00,356.1746,1.5,12.97,47.84626,-54.09684
2018-06-05 04:50:00+00:00,353.0929,1.52,12.97,47.84626,-54.09684
2018-06-05 05:00:00+00:00,348.9463,1.53,12.89,47.84626,-54.09684
2018-06-05 05:10:00+00:00,347.8862,1.54,12.81,47.84626,-54.09684
2018-06-05 05:20:00+00:00,344.7962,1.56,12.89,47.84626,-54.09684
2018-06-05 05:30:00+00:00,338.9963,1.52,12.89,47.84626,-54.09684
2018-06-05 05:40:00+00:00,332.4696,1.53,12.97,47.84626,-54.09684
2018-06-05 05:50:00+00:00,332.7812,1.58,12.97,47.84626,-54.09684
2018-06-05 06:00:00+00:00,330.4012,1.6,12.89,47.84626,-54.09684
2018-06-05 06:10:00+00:00,323.5046,1.6,12.81,47.84626,-54.09684
2018-06-05 06:20:00+00:00,316.8113,1.6,12.89,47.84626,-54.09684
2018-06-05 06:30:00+00:00,311.2864,1.6,12.89,47.84626,-54.09684
2018-06-05 06:40:00+00:00,304.043,1.6,12.89,47.84626,-54.09684
2018-06-05 06:50:00+00:00,295.7664,1.6,12.89,47.84626,-54.09684
2018-06-05 07:00:00+00:00,290.988,1.6,12.89,47.84626,-54.09684
2018-06-05 07:10:00+00:00,285.1747,1.6,12.81,47.84626,-54.09684
2018-06-05 07:20:00+00:00,277.3797,1.6,12.89,47.84626,-54.09684
2018-06-05 07:30:00+00:00,268.5031,1.6,12.89,47.84626,-54.09684
2018-06-05 07:40:00+00:00,264.6197,1.6,12.89,47.84626,-54.09684
2018-06-05 07:50:00+00:00,263.1214,1.6,12.89,47.84626,-54.09684
2018-06-05 08:00:00+00:00,259.0464,1.6,12.81,47.84626,-54.09684
2018-06-05 08:10:00+00:00,250.9714,1.6,12.81,47.84626,-54.09684
2018-06-05 08:20:00+00:00,247.8997,1.54,12.89,47.84626,-54.09684
2018-06-05 08:30:00+00:00,244.6981,1.59,12.89,47.84626,-54.09684
2018-06-05 08:40:00+00:00,239.1515,1.6,12.97,47.84626,-54.09684
2018-06-05 08:50:00+00:00,233.2231,1.6,13.05,47.84626,-54.09684
2018-06-05 09:00:00+00:00,231.0365,1.6,13.05,47.84626,-54.09684
2018-06-05 09:10:00+00:00,230.1564,1.6,12.97,47.84626,-54.09684
2018-06-05 09:20:00+00:00,231.4781,1.6,13.13,47.84626,-54.09684
2018-06-05 09:30:00+00:00,231.3648,1.61,13.29,47.84626,-54.09684
2018-06-05 09:40:00+00:00,229.203,1.6,13.44,47.84626,-54.09684
2018-06-05 09:50:00+00:00,230.5514,1.6,13.68,47.84626,-54.09684
2018-06-05 10:00:00+00:00,233.6147,1.61,13.92,47.84626,-54.09684
2018-06-05 10:10:00+00:00,233.9548,1.65,14.08,47.84626,-54.09684
2018-06-05 10:20:00+00:00,232.1781,1.65,14.64,47.84626,-54.09684
2018-06-05 10:30:00+00:00,233.9098,1.63,15.11,47.84626,-54.09684
2018-06-05 10:40:00+00:00,237.3331,1.62,15.99,47.84626,-54.09684
2018-06-05 10:50:00+00:00,239.2114,1.64,15.99,47.84626,-54.09684
2018-06-05 11:00:00+00:00,242.5481,1.65,14.8,47.84626,-54.09684
2018-06-05 11:10:00+00:00,245.4931,1.66,14.64,47.84626,-54.09684
2018-06-05 11:20:00+00:00,249.0897,1.66,15.51,47.84626,-54.09684
2018-06-05 11:30:00+00:00,251.1147,1.62,14.96,47.84626,-54.09684
2018-06-05 11:40:00+00:00,252.9382,1.62,14.96,47.84626,-54.09684
2018-06-05 11:50:00+00:00,254.323,1.63,14.96,47.84626,-54.09684
2018-06-05 12:00:00+00:00,255.6881,1.65,14.72,47.84626,-54.09684
2018-06-05 12:10:00+00:00,255.0464,1.68,14.72,47.84626,-54.09684
2018-06-05 12:20:00+00:00,253.9349,1.7,14.64,47.84626,-54.09684
2018-06-05 12:30:00+00:00,256.5331,1.7,14.96,47.84626,-54.09684
2018-06-05 12:40:00+00:00,259.5231,1.7,14.88,47.84626,-54.09684
2018-06-05 12:50:00+00:00,263.1981,1.7,14.88,47.84626,-54.09684
2018-06-05 13:00:00+00:00,267.4464,1.7,14.72,47.84626,-54.09684
2018-06-05 13:10:00+00:00,274.1398,1.7,14.64,47.84626,-54.09684
2018-06-05 13:20:00+00:00,277.6297,1.7,14.88,47.84626,-54.09684
2018-06-05 13:30:00+00:00,279.3813,1.7,14.64,47.84626,-54.09684
2018-06-05 13:40:00+00:00,285.6364,1.7,14.88,47.84626,-54.09684
2018-06-05 13:50:00+00:00,289.1764,1.7,14.72,47.84626,-54.09684
2018-06-05 14:00:00+00:00,291.0347,1.7,14.56,47.84626,-54.09684
2018-06-05 14:10:00+00:00,292.818,1.66,14.64,47.84626,-54.09684
2018-06-05 14:20:00+00:00,298.7446,1.6,14.72,47.84626,-54.09684
2018-06-05 14:30:00+00:00,300.873,1.55,14.72,47.84626,-54.09684
2018-06-05 14:40:00+00:00,302.2113,1.5,14.72,47.84626,-54.09684
2018-06-05 14:50:00+00:00,307.988,1.5,14.64,47.84626,-54.09684
2018-06-05 15:00:00+00:00,311.9396,1.52,14.64,47.84626,-54.09684
2018-06-05 15:10:00+00:00,311.583,1.59,14.56,47.84626,-54.09684
2018-06-05 15:20:00+00:00,312.618,1.65,14.64,47.84626,-54.09684
2018-06-05 15:30:00+00:00,315.5113,1.7,14.64,47.84626,-54.09684
2018-06-05 15:40:00+00:00,318.0429,1.69,14.64,47.84626,-54.09684
2018-06-05 15:50:00+00:00,315.5664,1.7,14.64,47.84626,-54.09684
2018-06-05 16:00:00+00:00,317.8162,1.7,14.48,47.84626,-54.09684
2018-06-05 16:10:00+00:00,320.6763,1.7,14.48,47.84626,-54.09684
2018-06-05 16:20:00+00:00,319.7029,1.7,14.56,47.84626,-54.09684
2018-06-05 16:30:00+00:00,321.9563,1.65,14.56,47.84626,-54.09684
2018-06-05 16:40:00+00:00,327.2963,1.66,14.56,47.84626,-54.09684
2018-06-05 16:50:00+00:00,325.5114,1.69,14.48,47.84626,-54.09684
2018-06-05 17:00:00+00:00,319.0613,1.77,14.48,47.84626,-54.09684
2018-06-05 17:10:00+00:00,320.1113,1.8,14.32,47.84626,-54.09684
2018-06-05 17:20:00+00:00,321.4647,1.8,14.4,47.84626,-54.09684
2018-06-05 17:30:00+00:00,316.5914,1.89,14.32,47.84626,-54.09684
2018-06-05 17:40:00+00:00,312.8013,1.9,14.32,47.84626,-54.09684
2018-06-05 17:50:00+00:00,309.2947,1.9,14.4,47.84626,-54.09684
2018-06-05 18:00:00+00:00,308.8547,1.9,14.32,47.84626,-54.09684
2018-06-05 18:10:00+00:00,307.143,1.9,14.24,47.84626,-54.09684
2018-06-05 18:20:00+00:00,303.3113,1.9,14.32,47.84626,-54.09684
2018-06-05 18:30:00+00:00,296.6347,1.9,14.4,47.84626,-54.09684
2018-06-05 18:40:00+00:00,294.3113,1.81,14.4,47.84626,-54.09684
2018-06-05 18:50:00+00:00,291.1213,1.8,14.4,47.84626,-54.09684
2018-06-05 19:00:00+00:00,285.0114,1.8,14.24,47.84626,-54.09684
2018-06-05 19:10:00+00:00,281.1664,1.8,14.16,47.84626,-54.09684
2018-06-05 19:20:00+00:00,275.5697,1.8,14.24,47.84626,-54.09684
2018-06-05 19:30:00+00:00,268.813,1.86,14.16,47.84626,-54.09684
2018-06-05 19:40:00+00:00,262.053,1.8,14.16,47.84626,-54.09684
2018-06-05 19:50:00+00:00,259.6947,1.7,14.08,47.84626,-54.09684
2018-06-05 20:00:00+00:00,257.433,1.6,14.0,47.84626,-54.09684
2018-06-05 20:10:00+00:00,249.2781,1.6,13.92,47.84626,-54.09684
2018-06-05 20:20:00+00:00,240.9764,1.6,13.84,47.84626,-54.09684
2018-06-05 20:30:00+00:00,240.4498,1.6,13.84,47.84626,-54.09684
2018-06-05 20:40:00+00:00,243.0597,1.6,13.84,47.84626,-54.09684
2018-06-05 20:50:00+00:00,236.2747,1.6,13.84,47.84626,-54.09684
2018-06-05 21:00:00+00:00,231.5631,1.56,13.76,47.84626,-54.09684
2018-06-05 21:10:00+00:00,233.0114,1.5,13.6,47.84626,-54.09684
2018-06-05 21:20:00+00:00,234.1848,1.5,13.6,47.84626,-54.09684
2018-06-05 21:30:00+00:00,231.0631,1.59,13.6,47.84626,-54.09684
2018-06-05 21:40:00+00:00,229.8681,1.66,13.6,47.84626,-54.09684
2018-06-05 21:50:00+00:00,232.8914,1.7,13.6,47.84626,-54.09684
2018-06-05 22:00:00+00:00,235.5847,1.73,13.44,47.84626,-54.09684
2018-06-05 22:10:00+00:00,236.5431,1.8,13.37,47.84626,-54.09684
2018-06-05 22:20:00+00:00,237.0331,1.8,13.37,47.84626,-54.09684
2018-06-05 22:30:00+00:00,239.0565,1.8,13.29,47.84626,-54.09684
2018-06-05 22:40:00+00:00,240.6914,1.8,13.29,47.84626,-54.09684
2018-06-05 22:50:00+00:00,242.3248,1.8,13.29,47.84626,-54.09684
2018-06-05 23:00:00+00:00,243.9582,1.8,13.21,47.84626,-54.09684
2018-06-05 23:10:00+00:00,246.2415,1.87,13.13,47.84626,-54.09684
2018-06-05 23:20:00+00:00,247.8314,1.94,13.13,47.84626,-54.09684
2018-06-05 23:30:00+00:00,246.9564,2.0,13.13,47.84626,-54.09684
2018-06-05 23:40:00+00:00,246.8398,2.09,13.13,47.84626,-54.09684
2018-06-05 23:50:00+00:00,250.8297,2.1,13.13,47.84626,-54.09684
